User: anonymous   Login
Location: Newark
(41.8083°N, 72.2500°W)
Time: 03:08:58
(UTC+00:00)
Language:

Vanguard 2 - Orbit

View from above orbital plane
View from above orbital plane
View from above satellite
View from above satellite

Ground track
Ground track

The orbit data is extracted from the following two-line orbital elements,

1 00011U 59001A   22274.67699811  .00000307  00000-0  14620-3 0  9997
2 00011  32.8756 154.8660 1467221 293.6363  51.7111 11.86173851374270
Epoch (UTC): 01 October 2022 16:14:52
Eccentricity: 0.1467221
inclination: 32.8756°
perigee height: 552 km
apogee height: 2935 km
right ascension of ascending node: 154.8660°
argument of perigee: 293.6363°
revolutions per day: 11.86173851
mean anomaly at epoch: 51.7111°
orbit number at epoch: 37427

The dashed part of the orbit path shows where the satellite is in the earth's shadow,  

DLR